{"data":{"norad_id":49402,"intl_designator":"2021-102H","name":"KOSEN-1","alt_names":[],"object_type":"PAYLOAD","status":"ACTIVE","operator":null,"country":"JPN","launch_date":"2021-11-09","launch_site_code":"KSCUT","launch_vehicle":null,"mission":null,"orbit_class":"UNKNOWN","rcs_meters":null,"size_class":null,"mass_kg":null,"dimensions":null,"purposes":[],"wikipedia_slug":null,"has_3d_model":false,"image_url":null,"decayed_at":null,"tle_current":{"epoch":"2026-09-20T14:11:20.846400Z","epoch_age_seconds":99505,"freshness":"FRESH","line1":"1 49402U 21102H   26263.59121350  .00004558  00000+0  16930-3 0  9993","line2":"2 49402  97.3103 303.9283 0012068 223.7642 136.2642 15.27989942268584","mean_motion":15.27989942,"eccentricity":0.0012068,"inclination_deg":97.3103,"raan_deg":303.9283,"arg_perigee_deg":223.7642,"mean_anomaly_deg":136.2642,"bstar":0.0001693,"rev_number":26858,"period_min":94.241458037032,"perigee_km":473.54325831553,"apogee_km":490.10045501198,"semimajor_km":6859.9588566638,"source":"CELESTRAK","updated_at":"2026-09-21T09:00:08.080118Z"}}}